Regional Weather Roundup
Issued by NWS Grand Forks, ND

Home | Current Version | Previous Version | Graphics & Text | Print | Product List | Glossary On
Versions: 1 2 3 4 5 6 7 8 9 10 11 12 13 14 15 16 17 18 19 20 21 22 23 24 25 26 27 28 29 30 31 32 33 34 35 36 37 38 39 40 41 42 43 44 45 46 47 48 49 50
528
ASUS43 KFGF 201210
RWRFGF
PRAIRIE TO PINES  WEATHER ROUNDUP
NATIONAL WEATHER SERVICE EASTERN NORTH DAKOTA/GRAND FORKS ND
700 AM CDT WED SEP 20 2017

 **SATELLITE DATA USED TO AUGMENT SKY COVER AT AUTOMATED STATIONS**
 *****  WEATHER ACROSS EASTERN NORTH DAKOTA  *****

CITY           SKY/WX    TMP DP  RH WIND       PRES   REMARKS
GRAND FORKS    FAIR      54  52  93 W9        29.57R
6HR MIN TEMP:  54; 6HR MAX TEMP:  65; 6HR PCP:  0.01;

GRAND FRKS AFB FAIR      52  50  92 W9        29.58R
DEVILS LAKE    FAIR      50  47  89 W15       29.60R
6HR MIN TEMP:  50; 6HR MAX TEMP:  57; 6HR PCP: TRACE;

WAHPETON ARPT  FAIR      54  50  87 W7        29.67R
$$

 ***** WEATHER ACROSS CENTRAL AND WESTERN NORTH DAKOTA  *****

CITY           SKY/WX    TMP DP  RH WIND       PRES   REMARKS
BISMARCK       FAIR      45  41  86 SW7       29.69R
6HR MIN TEMP:  38; 6HR MAX TEMP:  51;

MINOT          FAIR      47  40  76 SW9       29.58R
6HR MIN TEMP:  46; 6HR MAX TEMP:  53;

JAMESTOWN      FAIR      48  42  80 W12       29.65R
6HR MIN TEMP:  48; 6HR MAX TEMP:  57;

MINOT AFB      FAIR      44  40  84 SW8       29.56R
GARRISON         N/A     44  43  96 W9        29.62R
WILLISTON      FAIR      41  38  89 S5        29.58S
6HR MIN TEMP:  39; 6HR MAX TEMP:  47;

DICKINSON      FAIR      41  38  89 SW9       29.66R
6HR MIN TEMP:  40; 6HR MAX TEMP:  44;

HETTINGER      FAIR      39  35  86 SW3       29.74R
6HR MIN TEMP:  36; 6HR MAX TEMP:  43;

$$

 *****  OTHER AIRPORT OBSERVATIONS IN OUR AREA  *****

CITY           SKY/WX    TMP DP  RH WIND       PRES   REMARKS
WALHALLA       FAIR     N/A N/A N/A VRB6      29.51R
GRAFTON AIRPOR FAIR      52  52 100 W10       29.57R
VALLEY CITY AR FAIR      48  48 100 W15       29.67R
CANDO          FAIR      45  45 100 SW7       29.59R
CAVALIER APRT  FAIR      52  48  87 W7        29.52R
GWINNER        SUNNY     50  46  87 W8        29.68R
SHEYENNE NWR     N/A     52  49  91 W9        29.95S
ROLLA          FAIR      45  45 100 SW12      29.55R
 ***** THE ABOVE OBSERVATIONS ARE NON NWS ARE NOT QUALITY
       CONTROLLED AND MAY MIS-REPORT RAIN FOR SNOW...
$$

  *****  WEATHER ACROSS NORTHERN MINNESOTA  *****

CITY           SKY/WX    TMP DP  RH WIND       PRES   REMARKS
FLAG ISLAND    CLOUDY    61  59  94 S20       29.46S
WARROAD        LGT RAIN  57  54  88 W14G30    29.51R
ROSEAU         CLOUDY    57  52  82 W12       29.52R
HALLOCK        CLOUDY    55  52  88 W8        29.54R
THF RVR FALLS  CLOUDY    56  54  93 W10       29.58R
6HR MIN TEMP:  56; 6HR MAX TEMP:  61; 6HR PCP:  0.55;

BAUDETTE       CLOUDY    61  60  97 S9        29.49R
6HR MIN TEMP:  60; 6HR MAX TEMP:  62; 6HR PCP:  0.59;

WASKISH        CLOUDY    61  61 100 S6        29.53R FOG
CROOKSTON      FAIR      55  54  94 W6        29.59R
STEPHEN NDAWN    N/A     55  52  88 W8          N/A
GREENBUSH NDAW   N/A     55  54  94 SW7         N/A
$$
  *****  WEATHER ACROSS CENTRAL AND WEST MINNESOTA  *****

CITY           SKY/WX    TMP DP  RH WIND       PRES   REMARKS
FOSSTON        MOCLDY    54  54 100 W8        29.59R
BEMIDJI        CLOUDY    59  58  94 W16G23    29.57R
6HR MIN TEMP:  59; 6HR MAX TEMP:  61; 6HR PCP:  0.91;

PARK RAPIDS    CLOUDY    59  56  89 W15       29.61R
6HR MIN TEMP:  59; 6HR MAX TEMP:  63; 6HR PCP:  0.85;

ELBOW LAKE     FAIR      56  55  96 NW7       29.66S
WADENA         CLOUDY    59  59 100 W7G18     29.62R
DETROIT LAKES  MOCLDY    55  52  88 W9        29.65R
MOORHEAD       FAIR      54  48  82 W10       29.65R
FERGUS FALLS   MOCLDY    55  55 100 W10       29.66R
MORRIS MN      FAIR      57  55  94 NW8       29.65S
STAPLES        CLOUDY    59  59 100 SW8       29.61R FOG
$$
  *****  WEATHER ELSEWHERE ACROSS MINNESOTA  *****

CITY           SKY/WX    TMP DP  RH WIND       PRES   REMARKS
DULUTH         LGT RAIN  60  60 100 SE17      29.66S
6HR MIN TEMP:  59; 6HR MAX TEMP:  64; 6HR PCP:  0.52;

INTRNTL FALLS  MOCLDY    60  59  96 SE12      29.52F
6HR MIN TEMP:  60; 6HR MAX TEMP:  65; 6HR PCP:  0.94;

ELY            RAIN      59  57  94 S7        29.64R
CLOQUET        DRIZZLE   61  57  88 E10       29.63F
WHEATON        FAIR      57  52  82 W6        29.70R
BRAINERD       MOCLDY    60  59  96 S6        29.59R
6HR MIN TEMP:  59; 6HR MAX TEMP:  71; 6HR PCP:  0.30;

HIBBING        CLOUDY    59  59 100 SE13      29.62S
6HR MIN TEMP:  59; 6HR MAX TEMP:  64; 6HR PCP:  0.32;

ALEXANDRIA     CLOUDY    58  56  93 W17       29.68R
6HR MIN TEMP:  58; 6HR MAX TEMP:  64; 6HR PCP:  0.03;

SAINT CLOUD    FAIR      60  60 100 SE7       29.60R
6HR MIN TEMP:  60; 6HR MAX TEMP:  71; 6HR PCP:  0.56;

MINNEAPOLIS    CLOUDY    71  68  90 SE10      29.62R
6HR MIN TEMP:  70; 6HR MAX TEMP:  73; 6HR PCP:  0.04;

$$

  *****  WEATHER ACROSS SOUTH DAKOTA  *****

CITY           SKY/WX    TMP DP  RH WIND       PRES   REMARKS
SIOUX FALLS    FAIR      55  53  93 NW7       29.76R
6HR MIN TEMP:  55; 6HR MAX TEMP:  64; 6HR PCP: TRACE;

BROOKINGS      FAIR      52  50  93 NW12      29.74R
WATERTOWN      FAIR      52  49  89 W10       29.72R
6HR MIN TEMP:  51; 6HR MAX TEMP:  62;

HURON          FAIR      52  49  89 W12       29.77R
6HR MIN TEMP:  51; 6HR MAX TEMP:  61;

SISSETON         N/A     56  50  80 W18       29.68R
ABERDEEN       FAIR      47  45  93 W9        29.74R
6HR MIN TEMP:  47; 6HR MAX TEMP:  59;

MITCHELL       FAIR      52  49  89 W12       29.79R
PIERRE         FAIR      46  41  82 SW6       29.80R
6HR MIN TEMP:  45; 6HR MAX TEMP:  56;

MOBRIDGE       FAIR      41  39  93 CALM      29.74R
RAPID CITY     CLEAR     37  30  75 VRB3      29.79
$$

  *****  SOME WEATHER IN NEARBY STATES *****

CITY           SKY/WX    TMP DP  RH WIND       PRES   REMARKS
GLASGOW MT     FAIR      43  35  73 VRB5      29.58R
6HR MIN TEMP:  41; 6HR MAX TEMP:  48;

GREAT FALLS MT FAIR      44  26  49 SW22G33   29.58F
6HR MIN TEMP:  41; 6HR MAX TEMP:  46;

CHEYENNE WY    FAIR      44  28  53 W15       29.97S
6HR MIN TEMP:  41; 6HR MAX TEMP:  46; 6HR PCP: TRACE;

SCOTTSBLUFF NE FAIR      51  31  46 W7        29.92R
6HR MIN TEMP:  48; 6HR MAX TEMP:  56;

OMAHA NE       CLOUDY    68  60  75 N9        29.70R
6HR MIN TEMP:  68; 6HR MAX TEMP:  78;

DES MOINES IA  FAIR      73  68  84 S9        29.70S
6HR MIN TEMP:  73; 6HR MAX TEMP:  76;

DAVENPORT IA   FAIR      68  64  87 S9        29.84R
6HR MIN TEMP:  67; 6HR MAX TEMP:  69;

CHICAGO IL     FAIR      66  63  90 SE7       29.92S
6HR MIN TEMP:  62; 6HR MAX TEMP:  66;

EAU CLAIRE WI  FAIR      65  63  93 SE9       29.70F
6HR MIN TEMP:  65; 6HR MAX TEMP:  68; 6HR PCP:  0.11;

LA CROSSE WI   FAIR      71  64  78 S13       29.74R
6HR MIN TEMP:  71; 6HR MAX TEMP:  72;

$$

  *****  SOME NATIONAL WEATHER *****

CITY           SKY/WX    TMP DP  RH WIND       PRES   REMARKS
LA GUARDIA NY  PTSUNNY   72  65  78 N15G26    29.84R
6HR MIN TEMP:  71; 6HR MAX TEMP:  72;

RALEIGH NC     FAIR      66  65  96 SW5       30.01R
6HR MIN TEMP:  62; 6HR MAX TEMP:  66;

ATLANTA GA     FAIR      70  67  90 NW6       30.05R
6HR MIN TEMP:  69; 6HR MAX TEMP:  73;

NEW ORLEANS LA MOCLDY    76  74  93 CALM      29.99R
6HR MIN TEMP:  75; 6HR MAX TEMP:  78;

OKLAHOMA CITY  FAIR      72  67  84 S14       29.79S
6HR MIN TEMP:  70; 6HR MAX TEMP:  76;

ALBUQUERQUE NM FAIR      60  37  42 CALM      30.06R
6HR MIN TEMP:  59; 6HR MAX TEMP:  70;

SALT LAKE CITY FAIR      48  38  68 S8        29.93S
6HR MIN TEMP:  47; 6HR MAX TEMP:  52;

LOS ANGELES CA MOCLDY    63  60  90 NE5       29.86S
6HR MIN TEMP:  63; 6HR MAX TEMP:  67;

BOISE ID       CLOUDY    53  36  52 SE16G25   29.75F
6HR MIN TEMP:  48; 6HR M



USA.gov is the U.S. government's official web portal to all federal, state and local government web resources and services.